Location: Anuling
(14.1239°N, 120.8922°E)
Time: 01:39:38
(UTC+00:00)

GPS 2-17 Rocket1 - Pass Details

Date: 15 April 2026
Orbit: 544 x 613 km, 20.3° (Epoch: 19 May)

Event Time Altitude Azimuth Distance (km) Brightness Sun altitude
Rises 12:32:36 0° 285° (WNW) 2,858 7.5 -34.0°
Reaches altitude 10° 12:34:57 10° 284° (WNW) 1,952 6.4 -34.6°
Enters shadow 12:36:23 20° 283° (WNW) 1,415 5.5 -34.9°
